Charlevoix, MI

1:37 AM EDT on October 18, 2017 (GMT -0400)
Charlevoix Municipal

Weather History for KCVX - September, 2011

Change the Weather History Date:

Friday, September 16, 2011

  Actual Average Record
Temperature  
Mean Temperature 48 °F -  
Max Temperature 59 °F 62 °F 84 °F (2017)
Min Temperature 37 °F 52 °F 37 °F (2011)
Degree Days  
Heating Degree Days 17    
Moisture  
Dew Point 38 °F    
Average Humidity 67    
Maximum Humidity 93    
Minimum Humidity 48    
Precipitation  
Precipitation 0.00 in - - ()
Sea Level Pressure  
Sea Level Pressure 30.39 in    
Wind  
Wind Speed 5 mph (SSW)    
Max Wind Speed 12 mph    
Max Gust Speed 16 mph    
Visibility 10 miles    
Events      
Averages and records for this station are not official NWS values.
T = Trace of Precipitation, MM = Missing Value Source: NWS Daily Summary

Daily Weather History Graph

Daily Weather History Graph

Search for Another Location

Airport or City:

Trip Planner

Search our weather history database for the weather conditions in past years. The results will help you decide how hot, cold, wet, or windy it might be!

Date:

Astronomy

Sep. 16, 2011 Rise Set
Actual Time 7:20 AM EDT 7:50 PM EDT
Civil Twilight 6:50 AM EDT 8:20 PM EDT
Nautical Twilight 6:15 AM EDT 8:55 PM EDT
Astronomical Twilight 5:39 AM EDT 9:31 PM EDT
Moon 9:24 PM EDT (9/16) 11:40 AM EDT (9/16)
Length of Visible Light 13h 29m
Length of Day
12h 30m
Waning Gibbous, 84% of the Moon is Illuminated
Sep 16
Waning Gibbous
Sep 20
Last Quarter
Sep 27
New
Oct 3
First Quarter
Oct 11
Full

Hourly Weather History & Observations

Time (EDT) Temp. Windchill Dew Point Humidity Pressure Visibility Wind Dir Wind Speed Gust Speed Precip Events Conditions
12:15 AM 48.2 °F - 33.8 °F 58% 30.36 in 10.0 mi NNW 6.9 mph - N/A   Scattered Clouds
12:34 AM 48.2 °F - 35.6 °F 62% 30.37 in 10.0 mi NNW 6.9 mph - N/A   Scattered Clouds
12:55 AM 48.2 °F - 35.6 °F 62% 30.37 in 10.0 mi Calm Calm - N/A   Scattered Clouds
1:15 AM 46.4 °F 44.3 °F 35.6 °F 66% 30.37 in 10.0 mi NNW 4.6 mph - N/A   Scattered Clouds
1:35 AM 48.2 °F - 35.6 °F 62% 30.37 in 10.0 mi North 6.9 mph - N/A   Mostly Cloudy
1:55 AM 48.2 °F - 35.6 °F 62% 30.37 in 10.0 mi North 6.9 mph - N/A   Mostly Cloudy
2:14 AM 46.4 °F 42.9 °F 35.6 °F 66% 30.37 in 10.0 mi NNW 6.9 mph - N/A   Scattered Clouds
2:35 AM 48.2 °F - 35.6 °F 62% 30.38 in 10.0 mi North 4.6 mph - N/A   Clear
2:55 AM 48.2 °F - 35.6 °F 62% 30.38 in 10.0 mi NNE 4.6 mph - N/A   Clear
3:15 AM 42.8 °F 40.1 °F 35.6 °F 76% 30.37 in 10.0 mi SSE 4.6 mph - N/A   Clear
3:35 AM 39.2 °F 35.0 °F 35.6 °F 87% 30.37 in 10.0 mi SSE 5.8 mph - N/A   Clear
3:55 AM 39.2 °F 37.0 °F 35.6 °F 87% 30.38 in 10.0 mi SSE 3.5 mph - N/A   Clear
4:35 AM 39.2 °F 35.9 °F 35.6 °F 87% 30.37 in 10.0 mi SSE 4.6 mph - N/A   Clear
4:55 AM 39.2 °F - 35.6 °F 87% 30.38 in 10.0 mi Calm Calm - N/A   Clear
5:14 AM 39.2 °F 37.0 °F 35.6 °F 87% 30.38 in 10.0 mi SE 3.5 mph - N/A   Clear
5:35 AM 39.2 °F 37.0 °F 35.6 °F 87% 30.39 in 10.0 mi SSE 3.5 mph - N/A   Clear
5:55 AM 37.4 °F 34.9 °F 35.6 °F 93% 30.38 in 10.0 mi SE 3.5 mph - N/A   Clear
6:14 AM 37.4 °F - 35.6 °F 93% 30.39 in 10.0 mi Calm Calm - N/A   Clear
6:35 AM 37.4 °F 33.8 °F 33.8 °F 87% 30.39 in 10.0 mi South 4.6 mph - N/A   Clear
6:55 AM 39.2 °F - 33.8 °F 81% 30.39 in 10.0 mi Calm Calm - N/A   Clear
7:15 AM 37.4 °F - 33.8 °F 87% 30.39 in 10.0 mi Calm Calm - N/A   Clear
7:35 AM 37.4 °F - 33.8 °F 87% 30.39 in 10.0 mi Calm Calm - N/A   Clear
8:15 AM 41.0 °F 39.0 °F 35.6 °F 81% 30.41 in 10.0 mi SE 3.5 mph - N/A   Clear
8:35 AM 42.8 °F 41.1 °F 35.6 °F 76% 30.42 in 10.0 mi SSE 3.5 mph - N/A   Clear
9:15 AM 44.6 °F 43.1 °F 37.4 °F 76% 30.42 in 10.0 mi South 3.5 mph - N/A   Clear
9:35 AM 46.4 °F 43.5 °F 37.4 °F 71% 30.42 in 10.0 mi South 5.8 mph - N/A   Clear
9:54 AM 46.4 °F 42.9 °F 37.4 °F 71% 30.42 in 10.0 mi SE 6.9 mph - N/A   Clear
10:35 AM 50.0 °F - 39.2 °F 66% 30.43 in 10.0 mi South 8.1 mph - N/A   Scattered Clouds
10:54 AM 50.0 °F - 37.4 °F 62% 30.43 in 10.0 mi SSE 5.8 mph - N/A   Clear
11:15 AM 50.0 °F - 37.4 °F 62% 30.44 in 10.0 mi SSE 5.8 mph - N/A   Mostly Cloudy
11:34 AM 50.0 °F - 39.2 °F 66% 30.43 in 10.0 mi SE 4.6 mph - N/A   Overcast
11:55 AM 51.8 °F - 37.4 °F 58% 30.43 in 10.0 mi SE 5.8 mph - N/A   Overcast
12:15 PM 53.6 °F - 39.2 °F 58% 30.42 in 10.0 mi East 4.6 mph - N/A   Overcast
12:34 PM 53.6 °F - 39.2 °F 58% 30.42 in 10.0 mi East 4.6 mph - N/A   Overcast
12:55 PM 53.6 °F - 39.2 °F 58% 30.42 in 10.0 mi Calm Calm - N/A   Overcast
1:15 PM 53.6 °F - 39.2 °F 58% 30.41 in 10.0 mi Calm Calm - N/A   Overcast
1:34 PM 53.6 °F - 39.2 °F 58% 30.41 in 10.0 mi ENE 3.5 mph - N/A   Mostly Cloudy
2:14 PM 55.4 °F - 37.4 °F 51% 30.40 in 10.0 mi WSW 8.1 mph - N/A   Overcast
2:35 PM 57.2 °F - 37.4 °F 48% 30.39 in 10.0 mi Calm Calm - N/A   Overcast
2:55 PM 59.0 °F - 39.2 °F 48% 30.39 in 10.0 mi West 8.1 mph - N/A   Mostly Cloudy
3:15 PM 59.0 °F - 39.2 °F 48% 30.38 in 10.0 mi West 9.2 mph - N/A   Scattered Clouds
3:35 PM 59.0 °F - 39.2 °F 48% 30.38 in 10.0 mi West 9.2 mph - N/A   Scattered Clouds
3:55 PM 57.2 °F - 39.2 °F 51% 30.37 in 10.0 mi WSW 8.1 mph - N/A   Clear
4:14 PM 57.2 °F - 41.0 °F 55% 30.37 in 10.0 mi West 11.5 mph 16.1 mph N/A   Clear
4:35 PM 59.0 °F - 39.2 °F 48% 30.37 in 10.0 mi WSW 8.1 mph - N/A   Clear
4:55 PM 59.0 °F - 39.2 °F 48% 30.36 in 10.0 mi West 11.5 mph - N/A   Scattered Clouds
5:14 PM 57.2 °F - 41.0 °F 55% 30.36 in 10.0 mi West 8.1 mph - N/A   Clear
5:35 PM 57.2 °F - 41.0 °F 55% 30.35 in 10.0 mi West 5.8 mph - N/A   Clear
5:55 PM 57.2 °F - 41.0 °F 55% 30.35 in 10.0 mi West 8.1 mph - N/A   Clear
6:14 PM 57.2 °F - 41.0 °F 55% 30.35 in 10.0 mi West 6.9 mph - N/A   Scattered Clouds
6:35 PM 55.4 °F - 41.0 °F 58% 30.35 in 10.0 mi Calm Calm - N/A   Scattered Clouds
6:55 PM 53.6 °F - 41.0 °F 62% 30.35 in 10.0 mi SW 3.5 mph - N/A   Clear
7:14 PM 53.6 °F - 41.0 °F 62% 30.34 in 10.0 mi Calm Calm - N/A   Clear
7:35 PM 51.8 °F - 42.8 °F 71% 30.34 in 10.0 mi Calm Calm - N/A   Clear
7:55 PM 50.0 °F - 42.8 °F 76% 30.34 in 10.0 mi Calm Calm - N/A   Clear
8:35 PM 48.2 °F - 42.8 °F 82% 30.35 in 10.0 mi SSW 4.6 mph - N/A   Clear
8:55 PM 48.2 °F - 41.0 °F 76% 30.35 in 10.0 mi SW 4.6 mph - N/A   Clear
9:14 PM 48.2 °F - 42.8 °F 82% 30.35 in 10.0 mi SSW 3.5 mph - N/A   Clear
9:35 PM 48.2 °F - 41.0 °F 76% 30.35 in 10.0 mi SSW 4.6 mph - N/A   Clear
9:54 PM 48.2 °F - 41.0 °F 76% 30.35 in 10.0 mi South 4.6 mph - N/A   Clear
10:15 PM 48.2 °F - 41.0 °F 76% 30.35 in 10.0 mi South 4.6 mph - N/A   Clear
10:35 PM 46.4 °F 45.2 °F 41.0 °F 81% 30.35 in 10.0 mi South 3.5 mph - N/A   Clear
10:54 PM 44.6 °F 43.1 °F 41.0 °F 87% 30.35 in 10.0 mi South 3.5 mph - N/A   Clear
11:15 PM 42.8 °F 41.1 °F 39.2 °F 87% 30.36 in 10.0 mi South 3.5 mph - N/A   Clear
11:34 PM 41.0 °F - 39.2 °F 93% 30.36 in 10.0 mi Calm Calm - N/A   Clear
11:55 PM 41.0 °F 39.0 °F 39.2 °F 93% 30.37 in 10.0 mi SSE 3.5 mph - N/A   Clear